Location: Powder Track
(41.8531°N, 72.3584°W)
Time: 23:11:10
(UTC+00:00)

X-37B - Pass Details

Date: 28 June 2021
Orbit: 383 x 392 km, 45.0° (Epoch: 01 July)

Event Time Altitude Azimuth Distance (km) Brightness Sun altitude
Rises 02:00:16 0° 273° (W) 2,256 5.1 -13.6°
Reaches altitude 10° 02:02:23 10° 280° (W) 1,402 4.1 -13.9°
Maximum altitude 02:05:26 46° 355° (N) 528 1.6 -14.3°
Drops below altitude 10° 02:08:29 10° 70° (ENE) 1,402 3.2 -14.6°
Enters shadow 02:08:58 - 72° (ENE) 1,590 3.5 -14.7°
